Location: Bremen
(53.0796°N, 8.8241°E)
Time: 00:54:45
(UTC+02:00)

ISS - Visible Passes

Search period start: 22 October 2019 00:00
Search period end: 31 October 2019 23:00
Orbit: 411 x 421 km, 51.6° (Epoch: 21 October)

Date Brightness Start Highest point End Pass type
(mag) Time Alt. Az. Time Alt. Az. Time Alt. Az.
26 Oct -1.0 06:49:19 10° S 06:51:31 16° SE 06:53:44 10° ESE visible
27 Oct -0.8 05:01:57 10° SSE 05:03:08 11° SE 05:04:19 10° ESE visible
27 Oct -2.4 06:36:01 10° SW 06:39:11 38° SSE 06:42:21 10° E visible
28 Oct -2.0 05:47:42 10° SW 05:50:40 29° SSE 05:53:38 10° E visible
29 Oct -1.7 05:01:14 19° S 05:02:11 22° SSE 05:04:49 10° E visible
29 Oct -3.2 06:35:11 10° WSW 06:38:30 57° SSE 06:41:48 10° E visible
30 Oct -0.8 04:14:50 14° ESE 04:14:50 14° ESE 04:15:49 10° ESE visible
30 Oct -3.0 05:47:44 18° SW 05:49:53 46° SSE 05:53:09 10° E visible
31 Oct -2.7 05:01:13 36° SSE 05:01:19 36° SSE 05:04:28 10° E visible
31 Oct -3.5 06:34:28 10° W 06:37:50 69° S 06:41:10 10° E visible
